Tracking 25648 objects as of 17-May-2022
HD Live streaming from Space Station
objects crossing your sky now

COSMOS 2251 DEB

Track COSMOS 2251 DEB now!
10-day predictions


NORAD ID: 37296
Int'l Code: 1993-036BJL
Perigee: 687.6 km
Apogee: 785.3 km
Inclination: 73.8 °
Period: 99.4 minutes
Semi major axis: 7107 km
RCS: 0.0071 m2 (small)
Launch date: June 16, 1993
Source: Commonwealth of Independent States (former USSR) (CIS)
Launch site: PLESETSK MISSILE AND SPACE COMPLEX (PKMTR)

Note: This is SATELLITE DEBRIS
aabbcc
Your satellite tracking list
Your tracking list is empty




NASA's NSSDC Master Catalog

Two Line Element Set (TLE):
1 37296U 93036BJL 22135.37176032  .00008237  00000-0  21184-2 0  9998
2 37296  73.8385  19.7027 0068770 194.2860 165.6357 14.48875396625480
Source of the keplerian elements: AFSPC